Regional Weather Roundup
Issued by NWS Newport/Morehead, NC

Current Version | Previous Version | Graphics & Text | Print | Product List | Glossary On
Versions: 1 2 3 4 5 6 7 8 9 10 11 12 13 14 15 16 17 18 19 20 21 22 23 24 25 26 27 28 29 30 31 32 33 34 35 36 37 38 39 40 41 42 43 44 45 46 47 48 49 50
000 ASUS42 KMHX 211722 RWRMHX WEATHER ROUNDUP FOR EASTERN NORTH CAROLINA NATIONAL WEATHER SERVICE NEWPORT/MOREHEAD CITY NC 100 PM EDT THU AUG 21 2014 NOTE: "FAIR" INDICATES FEW OR NO CLOUDS BELOW 12,000 FEET WITH NO SIGNIFICANT WEATHER AND/OR OBSTRUCTIONS TO VISIBILITY NCZ015>017-031-032-045>047-102-103-211800- NORTH COAST CITY SKY/WX TMP DP RH WIND PRES REMARKS EDENTON SUNNY 85 75 71 SW5 30.04F ELIZABETH CITY MOSUNNY 86 74 67 VRB3 30.04S KITTY HAWK MOSUNNY 86 74 67 S3 30.03S MANTEO MOSUNNY 84 73 70 S8 30.04S $$ NCZ045>047-081-094-103-104-211800- CENTRAL COAST CITY SKY/WX TMP DP RH WIND PRES REMARKS FRISCO PTSUNNY 79 74 84 NW5 30.06F SWANQUARTER N/A 88 N/A N/A S6 30.00S $$ NCZ095-097-098-100-101-211800- SOUTHERN COAST CITY SKY/WX TMP DP RH WIND PRES REMARKS BEAUFORT MOSUNNY 87 79 76 S12 30.04F HX 101 CEDAR ISLAND N/A 81 N/A N/A SE12G22 30.09S JACKSONVILLE PTSUNNY 91 74 57 SW8 30.03F HX 100 NEWPORT NOT AVBL PINEY ISLAND PTSUNNY 88 79 74 E7 30.04F HX 103 WILMINGTON MOSUNNY 93 73 52 W8 30.04F HX 102 $$ NCZ011>013-027>030-043-044-078>080-089-090>093-098-211800- COASTAL PLAIN CITY SKY/WX TMP DP RH WIND PRES REMARKS AHOSKIE SUNNY 86 71 62 NW3 30.05R CLINTON MOSUNNY 91 73 56 W7 30.06S ELIZABETHTOWN SUNNY 91 70 50 W5 30.05S GOLDSBORO MOSUNNY 89 77 68 W5 30.03S HX 100 GREENVILLE MOSUNNY 88 77 70 N5 30.06S HX 100 HAVELOCK PTSUNNY 90 75 61 NW7 30.04F HX 100 KENANSVILLE MOSUNNY 89 71 55 NW3 30.06R KINSTON SUNNY 90 72 55 NW3 30.05S NEW BERN SUNNY 93 75 55 W3 30.04F HX 104 RICHLANDS MOSUNNY 91 73 55 W6 30.04S HX 100 ROANOKE RAPIDS NOT AVBL ROCKY MOUNT SUNNY 89 72 56 W5 30.05S WASHINGTON MOSUNNY 88 74 63 CALM 30.04S WHITEVILLE MOSUNNY 91 74 56 CALM 30.05S HX 100 $$ AMZ130-135-150-152-154-156-158-170-250-252-270-ANZ085-086-088-633-658-670-211800- MARINE OBSERVATIONS STATION/POSITION TIME TEMP WIND PRES WAVE SWELL AIR SEA DIR/SP/G HT/PER HT/PER (UTC) (F) (DEG/KT/KT) (MB) (FT/S) (FT/S) CHESAPEAKE LIGHT 1700 80 310/ 6/ 6 1017.8 BUOY 44014 1700 78 78 180/ 8/ 8 1017.1 2/ 6 2/ 6 DUCK 1700 83 79 240/ 6/ 9 1016.4 2E DUCK 1700 N/A 2/ 6 OREGON INLET 1700 81 82 210/ 5/ 6 1017.3 BUOY 44095 1700 79 N/A 3/ 8 20E OREGON INLET NOT AVBL HATTERAS CG 1700 81 81 360/ 1/ 5 1018.0 DIAMOND BUOY 1700 80 190/ 6/ 8 1017.8 3/ 8 3/ 8 CAPE LOOKOUT 1700 82 170/ 10/ 12 1017.4 BEAUFORT LAB 1700 83 82 190/ 10/ 11 1017.2 30 SE NEW RIVER 1700 83 83 210/ 6/ 8 1017.3 2/ 6 2/ 6 5 SE WRIGHTSVILL 1700 77 84 240/ 27/ 33 N/A BUOY 41002 1554 82 82 260/ 12/ 14 1019.5 3/ 5 2/ 8 BUOY 41004 1700 83 84 270/ 8/ 8 1017.6 2/ 5 2/ 5 $$

USA.gov is the U.S. government's official web portal to all federal, state and local government web resources and services.